User: anonymous   Login
Location: Unspecified
(0.0000°N, 0.0000°E)
Time: 11:03:22
(UTC+00:00)
Language:

AEROCUBE 6A - Orbit

View from above orbital plane
View from above orbital plane
View from above satellite
View from above satellite

Ground track
Ground track

The orbit data is extracted from the following two-line orbital elements,

1 40045U 14033AM  17351.37811674  .00000541  00000-0  85598-4 0  9997
2 40045  97.8465 231.7240 0059395  59.8604 300.8473 14.75011609187720
Epoch (UTC): 17 December 2017 09:04:29
Eccentricity: 0.0059395
inclination: 97.8465°
perigee height: 603 km
apogee height: 687 km
right ascension of ascending node: 231.7240°
argument of perigee: 59.8604°
revolutions per day: 14.75011609
mean anomaly at epoch: 300.8473°
orbit number at epoch: 18772

The dashed part of the orbit path shows where the satellite is in the earth's shadow,  

DLR